Probability
3 3 4 4 3 1 0 0 0 0 0 0 0 0 0 0 0 0 0 0 0 0 0 1 2 2 2 1 1 0 0 0 0 0 0 0 0 0 0 0 0 0 0 0 0 0 0 0 0
3 3 4 4 2 1 0 0 0 0 0 0 0 0 0 0 0 0 0 0 0 0 0 0 1 1 1 1 1 1 0 0 0 0 0 0 0 0 0 0 0 0 0 0 0 0 0 0 0
4 4 4 3 1 0 0 0 0 0 0 0 0 0 0 0 0 0 0 0 0 0 0 0 0 0 0 1 1 1 0 0 0 0 0 0 0 0 0 0 0 0 0 0 0 0 0 0 0
7 6 4 1 0 0 0 0 0 0 0 0 0 0 0 0 0 0 0 0 0 0 0 0 0 0 0 0 0 0 0 0 0 0 0 0 0 0 0 0 0 0 0 0 0 0 0 0 0
7 5 2 0 0 0 0 0 0 0 0 0 0 0 0 0 0 0 0 0 0 0 0 0 0 0 0 0 0 0 0 0 0 0 0 0 0 0 0 0 0 0 0 0 0 0 0 0 0
4 2 0 0 0 0 0 0 0 0 0 0 0 0 0 0 0 0 0 0 0 0 0 0 0 0 0 0 1 1 1 0 0 0 0 0 0 0 0 0 0 0 0 0 0 0 0 0 0
1 0 0 0 0 0 0 0 0 0 0 0 0 0 0 0 0 0 0 0 0 1 0 0 0 0 0 0 1 2 1 0 0 0 0 0 0 0 0 1 0 0 0 0 0 0 0 0 0
1 0 0 0 0 0 0 0 0 0 0 0 0 0 1 1 1 0 0 0 0 0 0 0 0 0 0 0 1 1 1 0 0 0 0 0 0 0 0 1 1 1 0 0 0 0 0 0 0
2 1 0 0 0 0 0 0 0 0 0 0 0 0 1 3 2 1 0 0 0 0 0 0 0 0 0 0 0 0 0 0 0 0 0 0 0 0 0 0 1 2 1 0 0 0 0 0 0
2 1 0 0 0 0 0 0 0 0 0 0 0 1 3 5 4 2 1 0 0 0 0 0 1 1 0 0 0 0 0 0 0 0 0 0 0 0 0 0 1 2 2 1 0 0 0 0 0
1 0 0 0 0 0 0 0 0 0 0 0 1 3 5 6 5 3 1 0 0 0 0 1 1 1 0 0 0 0 0 0 0 0 0 0 0 0 0 0 0 1 2 2 2 2 1 0 0
0 0 0 0 0 0 0 0 0 0 0 0 2 3 4 4 4 3 1 0 0 0 0 2 2 1 0 0 0 0 0 0 0 1 1 0 0 0 0 0 0 1 2 3 2 2 1 0 0
0 0 0 0 0 0 0 0 0 1 1 2 2 3 2 1 1 2 2 1 0 0 0 2 2 1 0 0 0 0 0 0 1 2 2 1 0 0 0 0 0 0 1 2 2 1 1 0 0
0 0 0 0 0 0 0 0 0 1 2 2 3 3 2 1 0 1 2 1 0 0 0 1 1 1 1 1 0 0 0 1 1 2 2 1 0 0 0 0 0 0 0 1 1 0 0 0 0
0 0 0 0 0 0 0 0 1 3 3 2 2 3 3 2 1 0 1 1 1 1 1 1 0 1 1 1 0 0 0 0 1 1 1 0 0 0 0 0 0 0 0 0 0 0 0 1 1
0 0 0 0 0 0 0 0 2 4 3 2 2 3 3 2 2 1 0 0 1 1 2 2 2 1 1 1 0 0 0 0 0 0 0 0 0 0 0 0 0 0 0 0 0 0 0 1 2
0 0 0 0 0 0 0 0 1 2 3 3 3 3 2 2 2 1 0 0 1 3 4 4 4 3 1 1 0 0 0 0 0 0 0 0 0 0 0 0 0 0 0 0 0 0 0 1 1
0 0 0 0 0 0 0 0 0 1 1 2 2 2 3 3 2 2 2 2 4 6 6 6 6 5 2 1 0 0 0 0 0 0 0 0 0 0 0 0 0 0 0 0 0 0 0 0 0
0 0 0 0 0 0 0 0 0 0 0 1 1 1 2 3 4 5 6 6 8 8 8 8 7 6 3 1 1 1 1 0 0 0 0 0 0 0 0 0 0 0 0 0 0 0 0 0 0
0 0 0 0 0 0 0 0 0 0 0 0 0 0 1 2 5 7 9 9 9 9 9 9 9 7 5 3 2 2 1 0 0 0 0 0 0 0 0 0 0 0 0 0 0 0 0 0 0
0 0 0 0 0 0 0 0 0 0 0 0 0 0 0 2 4 6 8 9 10 9 9 9 9 8 6 5 3 3 2 1 0 0 0 0 0 0 0 0 0 0 0 0 0 0 0 0 0
0 0 0 0 0 0 0 0 0 0 0 0 0 0 0 1 2 4 5 7 9 9 9 10 10 9 9 7 6 5 3 2 1 0 0 0 0 0 0 0 0 1 0 0 0 0 1 2 2
0 0 0 0 0 0 0 0 0 0 0 0 0 0 1 1 2 3 4 6 8 9 11 11 11 13 13 11 10 8 5 2 1 1 1 1 0 0 0 0 2 3 2 2 2 3 4 5 6
0 0 0 0 0 0 0 0 0 0 0 0 0 1 3 3 4 5 7 9 10 11 12 12 13 15 15 12 11 11 9 6 4 4 5 3 1 0 1 2 4 5 5 6 7 7 8 9 10
0 0 0 0 0 0 0 0 0 0 0 1 1 3 7 9 9 12 15 16 15 14 14 14 16 18 16 11 10 13 14 12 10 9 8 6 3 2 3 5 6 6 6 7 9 10 10 12 14
0 0 0 0 0 0 0 0 1 1 1 3 4 7 11 13 15 20 25 25 21 19 17 17 18 19 17 13 10 13 15 14 13 12 11 9 8 7 7 8 9 9 8 9 10 11 12 14 15
0 0 0 0 0 0 0 0 0 1 2 4 6 9 12 14 17 22 28 29 26 25 22 20 19 18 17 14 11 11 12 12 14 16 16 14 13 13 14 15 15 14 13 13 13 12 13 15 16
0 0 0 0 0 0 0 0 0 0 1 3 5 7 8 10 13 19 25 27 27 27 26 23 19 18 17 15 13 11 10 10 14 19 20 19 20 21 22 23 22 19 17 17 17 17 16 17 19
0 0 0 0 0 0 0 0 0 0 1 2 3 4 5 6 9 15 21 25 27 27 27 24 21 20 20 19 18 17 15 13 15 20 22 24 26 28 28 28 27 23 20 22 23 21 19 19 19
0 0 0 0 0 0 0 0 0 0 1 2 2 3 3 4 7 13 19 23 26 27 27 25 22 21 22 22 22 22 20 17 17 20 23 27 30 31 31 30 28 25 24 26 27 24 20 18 18
Wind_Speed
9 7 5 5 5 4 11 9 8 8 7 7 7 6 7 8 7 9 8 10 10 11 11 12 11 12 12 12 13 13 13 13 13 12 12 12 12 11 11 11 11 11 11 11 10 10 9 9 8
5 4 6 5 1 8 11 9 10 10 8 7 7 7 7 8 9 9 9 10 10 11 10 11 12 11 12 12 12 12 12 12 12 11 11 11 11 11 11 11 10 10 10 10 9 9 8 8 8
4 6 5 0 8 10 10 9 10 10 7 5 5 6 6 7 7 7 9 11 10 11 10 12 11 11 11 11 11 11 11 11 11 11 10 10 10 10 10 10 10 9 9 9 8 8 8 7 7
4 5 3 5 13 12 10 9 8 9 7 6 6 8 7 6 5 9 12 11 11 10 10 12 10 11 10 10 10 10 11 11 10 10 10 9 9 9 9 9 9 8 8 8 7 7 7 6 6
5 3 5 10 13 11 9 8 6 6 6 6 6 9 9 7 9 12 11 11 10 10 10 12 10 10 10 10 10 10 10 10 10 9 9 8 8 8 8 8 8 7 7 6 6 6 5 5 4
3 1 6 10 12 10 8 6 6 8 8 7 7 9 8 7 10 11 11 9 9 9 10 11 10 9 9 9 9 9 9 9 9 9 8 8 7 7 6 6 6 6 5 5 5 5 4 4 3
2 3 8 10 10 9 8 6 5 6 8 7 6 8 9 9 10 11 10 9 8 8 8 8 10 10 9 8 8 8 8 8 8 8 7 7 7 6 5 5 5 5 5 4 4 3 3 3 3
3 1 7 8 8 9 8 6 6 6 8 7 4 6 9 11 11 10 10 9 8 7 7 7 7 7 8 9 8 7 7 7 6 6 6 6 6 6 5 5 5 4 4 4 3 3 2 2 3
4 1 7 8 7 7 7 6 6 6 8 7 5 7 13 15 13 11 10 9 8 7 6 6 7 6 5 6 8 7 7 6 6 7 6 5 3 4 5 6 5 3 3 3 3 2 3 4 5
1 6 10 7 5 6 6 5 6 6 8 8 9 12 15 14 13 11 10 10 10 9 8 6 5 6 5 4 5 4 4 5 3 3 3 3 2 2 2 6 3 3 3 3 4 4 6 7 4
4 7 7 6 6 5 6 6 5 5 6 7 10 14 15 14 12 11 10 9 10 9 7 7 6 5 4 3 3 2 2 3 3 3 2 2 1 2 2 2 4 3 4 2 4 5 2 1 0
4 6 5 5 4 4 5 6 6 4 7 7 10 14 15 13 12 11 10 8 8 9 8 7 6 5 3 2 2 2 2 2 2 3 2 1 1 1 1 1 1 0 1 1 0 0 0 0 1
5 5 5 4 4 5 6 6 6 6 7 9 12 13 13 13 11 10 9 8 7 8 8 6 5 4 3 2 2 2 2 2 2 2 2 1 1 1 1 1 1 1 1 0 1 1 1 1 2
4 4 4 5 6 5 6 6 5 7 8 10 12 13 12 12 12 11 10 9 8 8 7 7 6 5 4 3 2 2 2 2 2 2 2 1 1 1 0 1 0 1 1 1 1 1 1 1 1
3 4 5 5 4 5 5 6 5 8 9 10 11 11 11 11 11 11 10 10 9 8 8 7 7 6 5 4 4 2 2 3 2 2 2 2 2 1 1 1 1 0 1 1 1 1 1 2 2
5 4 4 5 3 3 5 5 7 8 9 10 10 10 10 10 11 10 10 9 9 9 9 8 7 7 6 5 4 3 3 2 2 2 2 3 2 2 2 1 1 1 2 2 1 2 1 1 2
5 1 3 5 3 3 4 4 7 8 9 9 10 10 10 10 10 10 10 10 9 9 9 8 7 7 6 5 4 3 3 3 2 2 3 3 3 3 3 2 1 2 2 2 2 1 2 1 2
1 1 1 2 3 3 4 2 6 9 8 8 9 10 10 11 11 11 11 10 10 9 9 8 8 7 6 5 4 3 3 3 3 3 2 3 3 3 3 3 2 3 1 1 1 1 2 2 2
4 3 1 1 1 4 3 2 5 8 9 9 9 10 11 11 11 11 11 11 11 10 10 9 9 8 6 5 4 4 4 3 3 3 3 4 4 4 4 3 2 3 1 2 2 2 2 2 2
5 5 2 2 1 4 3 3 4 7 9 9 10 10 11 11 11 11 11 12 12 11 11 10 9 8 7 5 4 3 2 3 2 2 2 4 4 4 4 4 4 2 2 2 2 2 3 2 1
6 4 2 1 2 5 5 5 6 7 8 8 8 9 10 10 11 12 12 12 12 12 12 10 10 9 8 7 5 3 3 4 4 4 3 4 4 4 4 4 4 3 4 2 2 2 3 2 2
5 2 3 4 6 2 3 4 3 5 7 7 8 9 10 10 11 11 13 13 13 12 11 10 9 9 8 8 7 7 5 4 3 3 2 3 4 4 4 4 4 4 4 2 4 2 3 3 3
3 1 4 5 6 6 5 6 2 5 3 4 6 8 8 9 11 11 12 12 12 12 11 10 9 9 8 8 8 7 6 5 3 3 3 4 4 4 4 4 4 4 4 3 3 2 4 3 4
4 5 5 7 7 7 4 6 2 2 1 1 2 5 7 8 9 10 10 10 11 11 10 10 10 9 8 8 8 8 7 6 5 4 4 4 4 4 4 4 4 5 4 4 4 4 5 4 4
9 9 6 7 6 4 1 5 1 3 2 2 1 2 5 7 8 9 10 10 10 11 11 10 10 9 9 9 8 8 7 7 6 6 5 4 4 3 4 4 4 5 4 5 5 5 5 5 5
8 10 7 6 5 2 4 4 2 3 3 2 1 2 4 6 6 7 8 8 9 10 10 10 9 9 9 8 8 7 7 6 5 5 5 4 4 4 3 4 5 5 5 6 4 4 5 4 5
7 8 7 9 9 8 4 2 2 1 1 2 3 3 4 4 5 6 7 7 8 9 9 9 9 8 8 7 7 6 6 6 5 5 6 5 4 4 4 5 5 5 5 5 5 5 5 4 5
6 5 6 8 7 8 6 6 2 1 0 1 2 3 3 4 5 6 6 7 7 8 9 9 8 7 6 6 5 5 5 5 5 5 5 5 5 5 5 5 5 5 5 5 5 5 5 5 5
7 8 8 7 8 9 7 1 3 1 1 1 2 3 3 3 5 5 5 6 7 7 7 8 7 7 6 6 5 4 4 4 4 4 4 4 4 4 5 5 5 5 5 5 5 5 5 6 6
8 8 9 9 7 8 9 1 3 2 1 1 2 4 3 3 4 5 5 5 6 6 7 7 7 7 7 6 5 5 4 4 4 4 4 4 4 4 4 5 5 5 5 5 5 5 5 6 6
Wind_Direction
194 200 223 239 222 94 74 72 77 85 79 72 68 64 65 47 40 82 105 116 117 121 120 119 109 109 107 107 108 110 110 110 109 109 109 106 105 105 106 105 108 108 108 108 108 109 110 109 107
188 204 233 239 101 87 76 74 76 72 89 100 83 73 75 67 64 99 121 121 127 122 120 113 111 109 108 107 107 108 109 108 109 109 108 107 106 106 106 105 104 106 108 109 110 111 111 108 105
202 238 262 53 59 68 78 80 87 90 93 104 95 65 55 71 91 109 122 132 127 117 115 111 115 111 110 109 108 109 108 109 110 111 110 109 107 107 107 107 106 107 109 109 109 112 111 107 103
229 223 225 81 76 68 78 87 100 106 93 89 105 92 77 62 91 114 129 134 127 124 120 113 116 113 113 112 112 111 108 108 108 109 112 112 110 108 107 107 107 106 106 107 110 114 113 110 108
241 245 107 86 79 76 76 84 94 91 94 101 103 98 88 78 102 120 132 132 129 125 119 119 118 116 115 114 113 111 108 108 109 112 113 112 111 109 108 108 108 107 105 106 110 113 115 114 110
241 228 86 82 84 85 85 86 91 90 98 104 107 103 89 110 121 127 131 134 130 126 123 121 122 117 116 116 116 114 112 109 109 114 114 113 112 111 107 110 109 109 107 107 109 117 121 122 116
336 61 79 83 91 89 80 78 75 93 102 98 107 104 112 127 128 132 134 132 129 127 125 129 136 134 130 121 117 115 112 110 111 114 115 116 117 115 112 111 111 108 110 110 111 116 123 131 137
304 112 93 85 82 84 93 91 80 84 90 100 106 118 132 138 139 137 135 133 132 133 129 134 135 134 140 135 127 123 117 114 116 122 122 126 134 136 138 141 111 108 115 118 117 120 137 164 172
258 107 72 68 71 91 110 105 94 98 112 103 82 94 123 138 144 142 141 141 144 144 142 138 137 137 136 130 131 142 141 138 158 147 148 176 149 127 149 93 100 106 120 130 139 159 180 204 187
305 61 60 55 72 100 112 106 116 128 123 113 108 108 126 143 150 151 151 152 151 150 149 145 147 139 137 130 132 148 151 138 150 113 133 131 97 92 103 119 139 137 146 167 168 197 207 224 184
46 57 65 70 81 102 117 114 122 129 113 124 135 139 146 153 158 157 155 154 150 150 154 157 150 143 146 140 142 137 128 128 138 116 116 102 133 146 140 134 159 167 186 172 156 198 213 214 175
76 65 63 74 87 107 110 113 109 87 81 114 137 148 154 160 164 163 159 157 153 154 161 159 152 152 155 140 141 155 144 144 139 133 171 144 117 93 86 108 49 142 116 59 335 203 106 296 238
85 74 69 86 98 103 116 111 106 100 101 122 136 152 160 164 166 166 162 160 163 165 164 161 158 156 164 171 201 154 164 169 153 149 155 191 161 117 104 85 8 322 18 196 261 341 37 290 246
71 88 104 107 110 125 125 119 120 113 126 135 148 158 164 166 169 168 171 174 176 177 173 170 176 173 179 186 191 174 178 178 185 172 161 206 186 122 313 172 157 321 319 345 309 330 284 283 298
138 134 127 116 123 130 156 129 109 127 145 150 155 162 166 170 174 177 179 181 180 181 182 183 183 181 185 191 193 182 203 186 191 166 169 209 210 166 240 226 211 227 270 267 266 300 284 265 251
194 193 131 114 136 157 242 104 123 146 160 160 162 165 172 176 180 183 183 184 184 182 183 189 190 181 185 195 203 195 207 201 202 197 193 203 209 214 247 250 236 241 254 254 252 268 284 287 283
199 196 104 123 154 187 239 100 133 160 172 168 171 172 177 180 186 185 188 186 187 186 185 188 192 188 190 190 199 209 204 216 218 208 221 202 212 215 243 264 286 254 264 287 286 349 296 288 292
237 291 139 120 142 220 230 129 144 171 184 180 181 182 185 186 189 187 190 188 188 187 188 191 192 192 193 191 196 207 217 214 216 220 219 224 222 217 247 235 242 268 266 279 294 300 282 284 281
299 282 269 94 125 246 239 218 167 174 192 191 191 191 192 192 187 186 189 191 190 189 190 192 195 187 192 194 203 204 206 212 212 219 220 233 238 224 237 265 229 261 262 291 292 283 258 267 295
252 255 235 149 123 271 271 242 178 182 198 201 200 199 197 191 185 188 191 193 194 192 193 192 194 191 196 197 207 214 221 225 226 232 219 237 239 237 224 235 252 242 246 247 276 278 289 282 272
241 259 280 279 218 225 263 210 177 181 194 200 207 205 202 197 191 189 194 195 195 194 195 195 196 196 201 200 200 203 208 225 219 214 214 231 240 244 254 245 257 258 256 243 255 262 268 284 271
240 250 263 247 247 240 266 276 148 173 184 197 204 203 203 198 198 195 194 195 197 195 193 194 193 197 198 199 206 212 220 227 231 236 222 227 232 242 242 242 245 255 260 248 250 235 262 265 271
277 264 248 252 258 265 242 271 139 159 178 188 201 205 204 199 199 197 197 195 196 192 190 188 190 196 196 201 203 214 228 228 226 227 220 235 226 234 245 242 240 243 253 255 269 265 262 258 271
191 207 215 237 251 255 265 271 276 89 28 38 177 196 200 198 194 193 191 188 190 186 187 185 185 192 195 200 204 211 223 230 234 233 234 229 220 223 231 240 240 242 247 241 244 246 240 255 266
212 232 234 230 230 246 177 262 335 37 21 350 340 182 191 189 187 184 184 183 183 183 185 183 183 189 193 199 204 207 217 222 225 234 232 247 246 234 227 239 237 244 241 242 249 243 251 241 242
230 253 264 274 275 249 196 250 55 43 31 21 72 129 164 176 175 173 177 180 181 181 182 183 184 189 193 198 204 210 217 223 225 226 244 241 254 255 245 242 241 241 241 242 240 248 240 236 240
229 241 273 273 272 274 252 236 200 105 94 77 85 104 137 157 162 163 166 174 176 178 178 182 182 188 193 195 199 209 216 228 238 237 237 243 243 246 235 240 239 240 240 244 244 247 247 243 243
273 254 243 258 267 270 252 243 249 194 178 109 89 89 108 145 159 160 163 165 172 175 175 181 182 185 191 195 200 197 210 221 233 243 247 254 252 252 251 245 240 240 240 239 244 249 243 243 245
203 222 245 258 268 274 274 250 63 161 135 134 102 88 100 132 147 154 159 162 165 170 171 175 177 179 186 196 198 203 202 208 219 230 240 244 250 245 243 246 247 246 246 245 244 251 251 249 252
241 239 235 247 251 259 274 259 101 117 104 108 98 93 103 123 135 144 146 153 162 164 167 171 178 183 187 187 192 202 203 206 214 218 228 236 243 247 245 244 246 248 247 247 247 254 258 255 255